{"data":{"norad_id":69783,"epoch":"2026-09-19T15:20:12.909120Z","epoch_age_seconds":99812,"freshness":"FRESH","line1":"1 69783U 26151W   26262.63903830  .00000772  00000+0  13023-3 0  9995","line2":"2 69783  51.9008 240.4401 0000425  97.5071 262.5939 14.79928069 11949","mean_motion":14.79928069,"eccentricity":4.25e-5,"inclination_deg":51.9008,"raan_deg":240.4401,"arg_perigee_deg":97.5071,"mean_anomaly_deg":262.5939,"bstar":0.00013023,"rev_number":1194,"period_min":97.302026373013,"perigee_km":629.25336841502,"apogee_km":629.8490219116,"semimajor_km":7007.6881951633,"source":"CELESTRAK","updated_at":"2026-09-20T09:00:25.094035Z"}}